Regional Weather Roundup
Issued by NWS Charleston, SC

Current Version | Previous Version | Graphics & Text | Print | Product List | Glossary On
Versions: 1 2 3 4 5 6 7 8 9 10 11 12 13 14 15 16 17 18 19 20 21 22 23 24 25 26 27 28 29 30 31 32 33 34 35 36 37 38 39 40 41 42 43 44 45 46 47 48 49 50
000 ASUS42 KCHS 201540 RWRCHS REGIONAL WEATHER ROUNDUP NATIONAL WEATHER SERVICE CHARLESTON SC 1100 AM EDT WED SEP 20 2017 NOTE: "FAIR" INDICATES FEW OR NO CLOUDS BELOW 12,000 FEET WITH NO SIGNIFICANT WEATHER AND/OR OBSTRUCTIONS TO VISIBILITY. NOT ALL STATIONS ARE QUALITY CONTROLLED. USE DATA WITH CAUTION... ESPECIALLY DEWPOINT OBSERVATIONS. SCZ027-030-031-034>040-042>050-201600- ...SOUTHEAST SOUTH CAROLINA... CITY SKY/WX TMP DP RH WIND PRES REMARKS N CHARLESTON MOSUNNY 83 71 67 VRB6 30.04F WATERFRONT PRK N/A 82 72 71 VRB3 29.89S JOHNS ISLAND FAIR 86 72 62 CALM 30.04F HX 92 PINOPOLIS N/A 79 72 78 VRB3 29.99R MONCKS CORNER FAIR 82 68 61 SW5 30.04F SUMMERVILLE FAIR 82 70 65 W3 30.05S BEAUFORT MCAS PTSUNNY 84 70 62 SW6 30.04F BEAUFORT ARPT FAIR 82 68 61 SW5 30.04S HILTON HEAD IS PTSUNNY 81 70 69 S7 30.06S WALTERBORO SUNNY 82 70 65 SW3 30.05S ALLENDALE NOT AVBL ...SOUTHERN MIDLANDS AND PEE DEE... CITY SKY/WX TMP DP RH WIND PRES REMARKS GEORGETOWN FAIR 82 73 74 W5 30.05F KINGSTREE FAIR 82 70 65 SW6 30.04F ORANGEBURG CLOUDY 82 70 66 VRB3 30.05S BARNWELL FAIR 82 73 74 CALM 30.05S AIKEN FAIR 82 70 65 CALM 30.08F MANNING FAIR 82 64 54 CALM 30.05S COLUMBIA MOSUNNY 86 71 60 W5 30.04S HX 91 SUMTER SUNNY 84 69 59 W9 30.02F FLORENCE SUNNY 83 70 64 SW8 30.04F MYRTLE BEACH SUNNY 83 71 67 NW9 30.05S N MYRTLE BEACH SUNNY 84 71 65 VRB6 30.03F $$ GAZ063-065-086>088-099>101-113>116-118-119-134>141-150-201600- ...SOUTHEAST GEORGIA... CITY SKY/WX TMP DP RH WIND PRES REMARKS SAVANNAH ARPT CLOUDY 84 72 67 SW7 30.05S HUNTER AAF MOSUNNY 83 71 66 SW6 30.02S FORT STEWART CLOUDY 84 70 61 SW6 30.03R STATESBORO CLOUDY 82 69 64 W5 30.04F SYLVANIA CLOUDY 81 74 79 CALM 30.06S CLAXTON FAIR 84 75 74 CALM 30.05S HX 91 ...CSRA...CENTRAL AND FAR SOUTHEAST GEORGIA... CITY SKY/WX TMP DP RH WIND PRES REMARKS THOMSON SUNNY 85 68 57 N6 30.10F AUGUSTA-BUSH MOSUNNY 83 72 69 VRB3 30.04S AUGUSTA-DANIEL SUNNY N/A N/A N/A CALM 30.06S SWAINSBORO FAIR 79 72 78 CALM 30.06S VIDALIA CLOUDY 82 73 74 CALM 30.05S EASTMAN FAIR 86 64 48 CALM 30.06F HAZLEHURST FAIR 86 66 52 CALM 30.04S ALMA SUNNY 85 73 67 SE6 30.04F HX 91 WAYCROSS MOSUNNY 86 70 60 S5 30.05S HX 90 JESUP NOT AVBL BAXLEY FAIR 82 72 69 SW3 30.04S BRUNSWICK MOSUNNY 86 63 45 SW6 30.06F SAINT SIMONS SUNNY 84 68 58 SW9 30.05S $$ SCZ027-028-034-036>038-045-046-048>050-GAZ119-141-201600- ...LAKE AND SUPPLEMENTAL COASTAL OBSERVATIONS... STATION/POSITION TIME TEMP WIND PRES WAVE SWELL AIR SEA DIR/SP/G HT/PER HT/PER/DIR (UTC) (F) (DEG/KT/KT) (MB) (FT/S) (FT/S/D) WINYAH BAY 1445 80 280/ 8 1017.0S LAKE MURRAY 1520 81 170/ 3/ 4 1016.6F ACE BASIN NERRS 1445 84 200/ 1 1018.0S FORT PULASKI 1500 81 80 200/ 5/ 7 1017.9 SAPELO ISLAND 1500 83 CALM 1018.0 $$ ANZ835-935-AMZ111-154-330-350-352-354-370-450-454-472-201600- ...C-MAN AND BUOY OBSERVATIONS... STATION/POSITION TIME TEMP WIND PRES WAVE SWELL AIR SEA DIR/SP/G HT/PER HT/PER/DIR (UTC) (F) (DEG/KT/KT) (MB) (FT/S) (FT/S/D) BUOY 41004 1510 80 82 290/ 8/ 10 1017.2 BUOY 41008 1450 80 80 230/ 8/ 10 1017.4S 3/12 2/ 50/12 FOLLY BEACH CMAN 1500 80 210/ 8/ 9 1018.1F CAPERS NEARSHORE 1508 80 80 250/ 8/ 10 1017.3S FRIPP NEARSHORE 1508 80 220/ 8/ 10 1024.8F STATION/POSITION TIME TEMP WIND PRES WAVE SWELL AIR SEA DIR/SP/G HT/PER HT/PER/DIR (UTC) (F) (DEG/KT/KT) (MB) (FT/S) (FT/S/D) 5E ST. MARYS GA 1430 82 N/A 3/13 2/ 80/13 FRYING PAN BUOY 1510 79 82 280/ 10/ 12 1016.7 BUOY 41025 1450 76 74 290/ 12/ 14 1015.0F 6/11 5/ 70/11 CAPE LOOKOUT NC 1500 79 280/ 9/ 10 1015.7F BUOY 41002 1450 79 80 310/ 4/ 4 1017.2R 9/11 8/ 30/11 BUOY 41010 1510 84 350/ 4/ 6 1017.5 ST AUGUSTINE FL 1500 81 82 80/ 5/ 6 1018.3R $$

USA.gov is the U.S. government's official web portal to all federal, state and local government web resources and services.